User: anonymous   Login
Location: Unspecified
(0.0000°N, 0.0000°E)
Time: 22:21:08
(UTC+00:00)
Language:

STARLINK-31708 - Orbit

View from above orbital plane
View from above orbital plane
View from above satellite
View from above satellite

Ground track
Ground track

The orbit is defined by the following mean orbital elements,

1 59439U          26145.37403676 +.00000000 +00000-0 +25164-4 0 00009
2 59439  53.1609 285.2288 0001106 103.3869 256.7255 15.30190013    04
Epoch (UTC): 25 May 2026 08:58:36
Eccentricity: 0.0001106
inclination: 53.1609°
perigee height: 474 km
apogee height: 476 km
right ascension of ascending node: 285.2288°
argument of perigee: 103.3869°
revolutions per day: 15.30190013
mean anomaly at epoch: 256.7255°

The dashed part of the orbit path shows where the satellite is in the earth's shadow,  

DLR